Waarnemingen

Advertentie
Mijn weer
Soderstjerna, Zweden (2667): temperatuur & dauwpunt: 14.11.2018 12:00:00 - 20.11.2018 12:00:00 (CET)Soderstjerna, Zweden (2667): windsnelheid & windstoten: 14.11.2018 12:00:00 - 20.11.2018 12:00:00 (CET)Soderstjerna, Zweden (2667): windrichting: 14.11.2018 12:00:00 - 20.11.2018 12:00:00 (CET)Soderstjerna, Zweden (2667): luchtdruk: 14.11.2018 12:00:00 - 20.11.2018 12:00:00 (CET)Soderstjerna, Zweden (2667): zicht: 14.11.2018 12:00:00 - 20.11.2018 12:00:00 (CET)Soderstjerna, Zweden (2667): neerslag: 14.11.2018 12:00:00 - 20.11.2018 12:00:00 (CET)
Datum & Tijd tt [°C] td [°C] ff [km/u] ff [kn] fx [km/u] fx [kn] dd ppp [hPa] vv [km] rr [mm]
20.11.2018 12:00:00 5,0 2,0 25 14 40 21 ONO 1029,0 45 0,0
20.11.2018 11:00:00 5,2 1,7 22 12 50 27 O 1029,3 45 0,1
20.11.2018 10:00:00 5,8 1,3 22 12 32 18 ONO 1029,3 45 0,0
20.11.2018 09:00:00 5,5 1,2 22 12 43 23 O 1029,3 50 0,0
20.11.2018 08:00:00 5,5 2,3 22 12 36 19 O 1029,5 50 0,0
20.11.2018 07:00:00 5,4 2,1 25 14 36 19 O 1029,7 50 0,0
20.11.2018 06:00:00 5,2 2,8 25 14 36 19 ONO 1029,8 50 0,0
20.11.2018 05:00:00 4,7 2,7 22 12 32 18 ONO 1030,1 50 0,0
20.11.2018 04:00:00 5,0 3,0 22 12 32 18 ONO 1030,5 45 0,1
20.11.2018 03:00:00 5,0 2,9 22 12 32 18 ONO 1030,9 50 0,0
20.11.2018 02:00:00 5,0 2,5 25 14 40 21 ONO 1031,4 50 0,0
20.11.2018 01:00:00 5,0 2,4 25 14 32 18 ONO 1031,8 50 0,0
20.11.2018 00:00:00 5,1 2,3 25 14 36 19 ONO 1032,0 50 0,0
19.11.2018 23:00:00 4,8 2,2 25 14 32 18 ONO 1032,3 50 0,0
19.11.2018 22:00:00 4,8 2,5 25 14 32 18 ONO 1032,5 50 0,0
19.11.2018 21:00:00 4,8 2,7 22 12 32 18 NO 1032,6 50 0,0
19.11.2018 20:00:00 4,8 2,8 22 12 36 19 NO 1032,5 50 0,0
19.11.2018 19:00:00 4,7 2,4 22 12 40 21 ONO 1032,4 21 0,1
19.11.2018 18:00:00 4,7 2,6 22 12 36 19 NO 1032,5 50 0,1
19.11.2018 17:00:00 4,5 2,7 25 14 43 23 ONO 1032,5 23 0,0
19.11.2018 16:00:00 4,8 2,5 32 18 43 23 ONO 1032,3 24 0,1
19.11.2018 15:00:00 5,1 2,6 25 14 40 21 NO 1032,3 45 0,1
19.11.2018 14:00:00 4,8 2,7 29 16 43 23 ONO 1032,5 35 0,0
19.11.2018 13:00:00 5,0 2,2 32 18 47 25 ONO 1032,5 26 0,1
19.11.2018 12:00:00 5,6 2,2 29 16 47 25 ONO 1032,9 45 0,0
19.11.2018 11:00:00 5,5 2,1 32 18 50 27 ONO 1032,8 45 0,3
19.11.2018 10:00:00 5,4 2,2 25 14 40 21 ONO 1032,9 45 0,0
19.11.2018 09:00:00 4,8 2,8 29 16 36 19 ONO 1032,8 27 0,1
19.11.2018 08:00:00 4,6 2,9 25 14 40 21 NO 1032,5 35 0,2
19.11.2018 07:00:00 4,6 2,9 25 14 40 21 NO 1032,0 45 0,4
19.11.2018 06:00:00 4,6 2,6 29 16 47 25 NO 1031,8 45 0,3
19.11.2018 05:00:00 4,8 2,8 29 16 43 23 ONO 1032,0 10 0,4
19.11.2018 04:00:00 5,0 2,9 32 18 43 23 NO 1031,9 29 0,3
19.11.2018 03:00:00 5,0 3,2 18 10 32 18 NNO 1032,2 50 0,0
19.11.2018 02:00:00 4,9 3,2 14 8 29 16 NNO 1032,6 45 0,0
19.11.2018 01:00:00 5,1 3,4 14 8 32 18 NNO 1032,9 50 0,0
19.11.2018 00:00:00 5,2 3,9 22 12 32 18 NO 1033,2 12 0,5
18.11.2018 23:00:00 5,4 3,4 18 10 32 18 NO 1033,2 28 0,1
18.11.2018 22:00:00 5,6 3,1 18 10 36 19 NNO 1033,6 50 0,1
18.11.2018 21:00:00 5,4 3,6 25 14 40 21 NO 1033,6 35 0,0
18.11.2018 20:00:00 5,6 3,4 29 16 40 21 NO 1033,7 45 0,0
18.11.2018 19:00:00 5,6 3,9 25 14 43 23 NO 1033,8 30 0,2
18.11.2018 18:00:00 5,6 3,8 25 14 47 25 NO 1034,0 45 0,0
18.11.2018 17:00:00 5,8 4,0 25 14 43 23 NO 1034,3 50 0,0
18.11.2018 16:00:00 6,3 4,1 29 16 43 23 NO 1034,3 45 0,0
18.11.2018 15:00:00 6,6 4,9 25 14 43 23 NO 1033,9 40 0,0
18.11.2018 14:00:00 6,5 5,1 22 12 43 23 NO 1033,9 14 0,0
18.11.2018 13:00:00 6,8 4,6 22 12 43 23 NO 1034,2 22 0,0
18.11.2018 12:00:00 6,9 4,0 25 14 50 27 NO 1034,5 45 0,0
18.11.2018 11:00:00 6,7 3,8 22 12 50 27 NO 1034,7 45 0,0
18.11.2018 10:00:00 6,4 3,7 25 14 43 23 NO 1034,6 40 0,0
18.11.2018 09:00:00 5,7 3,7 14 8 50 27 NNO 1035,0 45 0,0
18.11.2018 08:00:00 5,3 3,6 29 16 50 27 NO 1034,9 40 0,0
18.11.2018 07:00:00 4,9 3,7 11 6 18 10 NNO 1034,8 19 0,0
18.11.2018 06:00:00 5,1 3,8 11 6 14 8 N 1034,8 17 0,0
18.11.2018 05:00:00 5,2 3,7 7 4 14 8 NW 1034,9 20 0,0
18.11.2018 04:00:00 5,2 3,5 7 4 18 10 NW 1035,8 23 0,0
18.11.2018 03:00:00 5,0 3,3 11 6 18 10 NW 1036,2 24 0,0
18.11.2018 02:00:00 4,9 2,9 11 6 18 10 NW 1037,1 26 0,0
18.11.2018 01:00:00 4,9 2,6 7 4 18 10 NW 1037,6 35 0,0
18.11.2018 00:00:00 5,1 2,6 11 6 18 10 WNW 1038,0 40 0,0
17.11.2018 23:00:00 - - - - - - - - - -
17.11.2018 22:00:00 5,0 2,2 7 4 14 8 WNW 1039,2 45 0,0
17.11.2018 21:00:00 5,1 2,5 7 4 18 10 N 1039,7 40 0,0
17.11.2018 20:00:00 5,0 2,2 7 4 18 10 NNW 1040,1 30 0,0
17.11.2018 19:00:00 5,1 2,6 7 4 18 10 N 1040,2 30 0,0
17.11.2018 18:00:00 5,3 2,6 4 2 14 8 NW 1040,6 25 0,0
17.11.2018 17:00:00 5,4 2,7 7 4 18 10 NNW 1040,6 19 0,0
17.11.2018 16:00:00 5,5 2,8 11 6 18 10 WNW 1040,6 23 0,0
17.11.2018 15:00:00 5,9 2,7 7 4 14 8 WNW 1041,5 27 0,0
17.11.2018 14:00:00 6,1 2,7 7 4 11 6 NW 1041,6 29 0,0
17.11.2018 13:00:00 6,1 2,6 7 4 14 8 NNW 1042,1 28 0,0
17.11.2018 12:00:00 6,2 2,6 7 4 14 8 W 1042,3 30 0,0
17.11.2018 11:00:00 5,9 2,5 7 4 22 12 WZW 1042,2 25 0,0
17.11.2018 10:00:00 6,1 3,1 14 8 18 10 ZZW 1041,8 26 0,0
17.11.2018 09:00:00 6,4 3,6 11 6 18 10 ZZW 1041,8 28 0,0
17.11.2018 08:00:00 6,1 3,1 11 6 14 8 ZW 1041,8 26 0,0
17.11.2018 07:00:00 6,0 3,2 4 2 14 8 ZW 1041,7 23 0,0
17.11.2018 06:00:00 6,0 3,4 7 4 14 8 ZW 1041,8 24 0,0
17.11.2018 05:00:00 5,8 3,1 7 4 18 10 WZW 1041,9 29 0,0
17.11.2018 04:00:00 6,1 3,4 11 6 22 12 WZW 1041,9 29 0,0
17.11.2018 03:00:00 6,1 3,4 14 8 25 14 Z 1041,6 28 0,0
17.11.2018 02:00:00 6,4 4,1 14 8 29 16 Z 1041,6 27 0,0
17.11.2018 01:00:00 6,9 4,2 14 8 22 12 Z 1041,2 35 0,0
17.11.2018 00:00:00 7,0 4,7 11 6 18 10 ZZO 1041,2 45 0,0
16.11.2018 23:00:00 6,9 4,6 14 8 22 12 ZO 1040,9 45 0,0
16.11.2018 22:00:00 7,0 4,8 14 8 18 10 ZO 1040,7 45 0,0
16.11.2018 21:00:00 7,0 5,0 14 8 25 14 ZO 1040,7 45 0,0
16.11.2018 20:00:00 7,1 5,6 18 10 25 14 ZZO 1040,3 40 0,0
16.11.2018 19:00:00 7,5 6,1 18 10 22 12 ZZO 1039,7 22 0,0
16.11.2018 18:00:00 7,5 6,0 11 6 14 8 ZO 1039,6 40 0,0
16.11.2018 17:00:00 7,6 6,1 11 6 14 8 ZZO 1039,5 35 0,0
16.11.2018 16:00:00 7,9 6,2 11 6 14 8 Z 1039,7 30 0,0
16.11.2018 15:00:00 8,5 6,8 11 6 14 8 Z 1039,4 25 0,0
16.11.2018 14:00:00 8,8 6,9 11 6 14 8 Z 1039,1 30 0,0
16.11.2018 13:00:00 9,1 6,9 14 8 14 8 Z 1039,1 30 0,0
16.11.2018 12:00:00 9,3 6,9 11 6 22 12 Z 1039,1 45 0,0
16.11.2018 11:00:00 9,3 6,4 18 10 22 12 Z 1038,7 40 0,0
16.11.2018 10:00:00 9,1 6,7 11 6 14 8 Z 1038,8 30 0,0
16.11.2018 09:00:00 8,6 6,4 11 6 14 8 Z 1038,3 35 0,0
16.11.2018 08:00:00 8,2 6,7 11 6 14 8 Z 1038,1 30 0,0
16.11.2018 07:00:00 8,1 6,7 11 6 14 8 Z 1037,3 35 0,0
16.11.2018 06:00:00 8,1 7,0 11 6 14 8 Z 1036,8 25 0,0
16.11.2018 05:00:00 8,0 7,7 7 4 14 8 Z 1036,6 18 0,0
16.11.2018 04:00:00 7,3 7,0 7 4 14 8 Z 1036,6 5 0,0
16.11.2018 03:00:00 7,5 7,2 11 6 18 10 Z 1036,3 0,1 0,0
16.11.2018 02:00:00 7,1 6,7 14 8 22 12 Z 1036,2 0,2 0,0
16.11.2018 01:00:00 7,7 7,1 0 0 4 2 N 1035,8 15 0,0
16.11.2018 00:00:00 7,4 6,8 0 0 14 8 N 1035,8 15 0,0
15.11.2018 23:00:00 7,3 6,9 11 6 18 10 ZZW 1035,3 13 0,0
15.11.2018 22:00:00 7,9 7,1 14 8 18 10 ZZW 1034,8 11 0,0
15.11.2018 21:00:00 8,4 8,1 11 6 18 10 ZZW 1034,3 10 0,0
15.11.2018 20:00:00 8,1 7,8 14 8 18 10 ZZW 1033,8 2,7 0,0
15.11.2018 19:00:00 8,1 7,8 14 8 18 10 ZZW 1033,6 1,6 0,0
15.11.2018 18:00:00 8,0 7,7 11 6 14 8 Z 1033,2 1,2 0,0
15.11.2018 17:00:00 8,0 7,7 11 6 14 8 ZZW 1033,1 0,7 0,0
15.11.2018 16:00:00 8,2 7,8 14 8 14 8 ZZW 1032,8 1,0 0,0
15.11.2018 15:00:00 8,5 7,9 11 6 14 8 ZZW 1032,2 7 0,0
15.11.2018 14:00:00 8,9 8,1 11 6 14 8 ZZW 1032,0 11 0,0
15.11.2018 13:00:00 8,6 8,0 14 8 14 8 ZZW 1031,9 7 0,0
15.11.2018 12:00:00 8,7 8,1 11 6 14 8 ZZW 1031,9 7 0,0
15.11.2018 11:00:00 8,6 7,8 11 6 14 8 Z 1031,8 7 0,0
15.11.2018 10:00:00 9,0 8,1 11 6 18 10 WZW 1031,5 13 0,0
15.11.2018 09:00:00 8,4 8,1 11 6 14 8 ZZW 1030,8 5 0,0
15.11.2018 08:00:00 8,4 8,1 14 8 18 10 Z 1030,4 4,5 0,0
15.11.2018 07:00:00 8,6 8,3 11 6 14 8 ZZW 1030,0 6 0,0
15.11.2018 06:00:00 8,3 8,0 7 4 11 6 ZZW 1029,8 4,2 0,0
15.11.2018 05:00:00 7,9 7,6 0 0 11 6 N 1029,7 3,9 0,0
15.11.2018 04:00:00 7,8 7,5 7 4 18 10 W 1029,4 4,8 0,0
15.11.2018 03:00:00 7,7 7,4 14 8 18 10 W 1029,0 4,0 0,0
15.11.2018 02:00:00 7,4 7,1 7 4 18 10 W 1029,1 0,4 0,0
15.11.2018 01:00:00 7,1 6,8 11 6 22 12 WZW 1029,1 0,2 0,0
15.11.2018 00:00:00 8,0 7,6 18 10 22 12 WZW 1028,7 0,6 0,0
14.11.2018 23:00:00 8,1 7,7 7 4 14 8 W 1028,6 9 0,0
14.11.2018 22:00:00 8,6 7,8 11 6 18 10 WZW 1028,3 12 0,0
14.11.2018 21:00:00 9,0 7,8 11 6 14 8 WZW 1028,0 26 0,0
14.11.2018 20:00:00 8,9 8,0 11 6 14 8 WZW 1027,7 30 0,0
14.11.2018 19:00:00 8,9 7,8 11 6 14 8 WZW 1027,5 30 0,0
14.11.2018 18:00:00 8,9 7,9 11 6 14 8 WZW 1027,0 29 0,0
14.11.2018 17:00:00 8,9 7,8 11 6 18 10 W 1027,0 27 0,0
14.11.2018 16:00:00 9,1 7,9 11 6 18 10 WZW 1026,5 30 0,0
14.11.2018 15:00:00 9,2 8,0 14 8 18 10 WZW 1026,2 25 0,0
14.11.2018 14:00:00 9,6 8,2 4 2 14 8 W 1025,7 30 0,0
14.11.2018 13:00:00 - - - - - - - - - -
14.11.2018 12:00:00 9,5 8,3 14 8 22 12 W 1025,1 26 0,0

tt = temperatuur
td = dauwpunt
ff = windsnelheid
fx = windstoten
dd = windrichting
ppp = luchtdruk
vv = zicht
rr = neerslag

Weerstations in de omgeving